INTELSAT 14 (IS-14)

Last updated on Sun Apr 12 2026 00:02:52 GMT+0000 (Coordinated Universal Time)

1 36097U 09064A 26101.44042831 .00000000 00000+0 00000+0 0 9998 2 36097 0.0168 215.3655 0002685 183.8118 274.0479 1.00267172 59935
UTC large
Height (km)
Speed (km/s)
/
Latitude / Longitude
Inclination (degrees)
Orbital Period (minutes)
Azimuth
Elevation
Range (km)
Doppler Factor

Next 0 passes for location: London (51.5072 / 0.1276)

Sorry there are no passes over London.
INTELSAT 14 (IS-14)